• Join FlightAware (Why Join?)
  • Login
  • US Flag 
04:15AM EDT


 

Airport Tracker/Info


-or-


 

Live Flight TrackerFlight Track Log ✈ EJA982 ✈ 22-Apr-2013 ✈ KRNO - KHPN

Flight Track Log - Related Links

Times and Time Zones

All times are in EDT time to prevent confusion due to time zone crossing. See the EJA982 flight status page for this flight to view local times or setup timezone preferences in your user account.

Time Position Orientation Groundspeed Altitude Reporting Facility
EDT Latitude Longitude Course Direction KTS MPH feet Rate Location/Type
01:08PM 39.3833 -119.7500 169° South 262 302 9,000  Level Northern Cal TRACON
01:10PM 39.4553 -119.5711 62° Northeast 324 373 12,200 1,740 Climbing Salt Lake Center
01:11PM 39.5361 -119.4500 49° Northeast 359 413 14,600 1,980 Climbing Oakland Center
01:12PM 39.6078 -119.3472 48° Northeast 375 432 16,400 1,680 Climbing Oakland Center
01:13PM 39.6819 -119.2389 48° Northeast 392 451 18,100 1,560 Climbing Oakland Center
01:14PM 39.7564 -119.1294 48° Northeast 399 459 19,700 1,440 Climbing Oakland Center
01:15PM 39.8342 -119.0136 49° Northeast 414 476 21,100 1,320 Climbing Oakland Center
01:16PM 39.9128 -118.8953 49° Northeast 426 490 22,500 1,380 Climbing Oakland Center
01:17PM 39.9928 -118.7764 49° Northeast 433 498 24,000 1,380 Climbing Oakland Center
01:18PM 40.0750 -118.6519 49° Northeast 445 512 25,400 1,260 Climbing Oakland Center
01:19PM 40.1439 -118.5117 57° Northeast 456 525 26,700 1,260 Climbing Oakland Center
01:20PM 40.1994 -118.3078 70° East 490 564 28,100 1,260 Climbing Oakland Center
01:21PM 40.2464 -118.1342 70° East 502 578 29,300 1,080 Climbing Oakland Center
01:22PM 40.2931 -117.9597 71° East 511 588 30,400 1,140 Climbing Oakland Center
01:23PM 40.3394 -117.7875 70° East 520 598 31,600 1,140 Climbing Salt Lake Center
01:24PM 40.3869 -117.6097 71° East 532 612 32,700 1,200 Climbing Salt Lake Center
01:25PM 40.4428 -117.4014 71° East 541 623 34,100 1,380 Climbing Salt Lake Center
01:26PM 40.4911 -117.2219 70° East 542 624 35,600 1,560 Climbing Salt Lake Center
01:27PM 40.5378 -117.0406 71° East 542 624 37,400 1,740 Climbing Salt Lake Center
01:28PM 40.5928 -116.8331 71° East 528 608 39,200 1,260 Climbing Salt Lake Center
01:29PM 40.6406 -116.6569 70° East 528 608 40,000 720 Climbing Salt Lake Center
01:30PM 40.6886 -116.4797 70° East 532 612 40,700 300 Climbing Salt Lake Center
01:32PM 40.7373 -116.2639 71° East  Level FlightAware Approximate
01:32PM 40.7917 -116.0897 71° East 547 629 41,000  Level Salt Lake Center
01:33PM 40.8403 -115.9075 71° East 549 632 41,000  Level Salt Lake Center
01:34PM 40.8953 -115.6931 71° East 551 634 41,000  Level Salt Lake Center
01:35PM 40.9422 -115.5103 71° East 550 633 41,000  Level Salt Lake Center
01:36PM 40.9967 -115.3006 71° East 541 623 41,000  Level Salt Lake Center
01:37PM 41.0422 -115.1214 71° East 538 619 41,000  Level Salt Lake Center
01:39PM 41.0897 -114.9417 71° East 539 620 41,000  Level Salt Lake Center
01:40PM 41.1361 -114.7486 72° East 540 621 41,000  Level Salt Lake Center
01:41PM 41.1850 -114.5597 71° East 541 623 41,000  Level Salt Lake Center
01:42PM 41.2400 -114.3311 72° East 543 625 41,000  Level Salt Lake Center
01:43PM 41.2869 -114.1394 72° East 546 628 41,000  Level Salt Lake Center
01:44PM 41.3336 -113.9486 72° East 544 626 41,000  Level Salt Lake Center
01:45PM 41.3697 -113.7547 76° East 542 624 41,000 -60 Level Salt Lake Center
01:46PM 41.3814 -113.5475 86° East 559 643 40,900  Descending Salt Lake Center
01:47PM 41.3950 -113.3392 85° East 564 649 41,000  Climbing Salt Lake Center
01:48PM 41.4078 -113.1344 85° East 556 640 41,000  Level Salt Lake Center
01:49PM 41.4206 -112.9264 85° East 563 648 41,000  Level Salt Lake Center
01:51PM 41.4472 -112.4694 85° East 559 643 41,000  Level Salt Lake Center
01:52PM 41.4583 -112.2617 86° East 560 644 41,000  Level Salt Lake Center
01:53PM 41.4694 -112.0517 86° East 563 648 41,000  Level Salt Lake Center
01:54PM 41.4811 -111.8417 86° East 565 650 41,000  Level Salt Lake Center
01:55PM 41.4911 -111.6308 86° East 565 650 41,000  Level Salt Lake Center
01:56PM 41.5019 -111.4197 86° East 567 652 41,000  Level Salt Lake Center
01:57PM 41.5103 -111.2092 87° East 567 652 41,000  Level Salt Lake Center
01:58PM 41.5194 -110.9986 87° East 567 652 41,000  Level Salt Lake Center
01:59PM 41.5300 -110.7703 86° East 570 656 41,000  Level Salt Lake Center
02:00PM 41.5397 -110.5350 87° East 569 655 41,000  Level Salt Lake Center
02:01PM 41.5478 -110.3333 87° East 569 655 41,000  Level Salt Lake Center
02:02PM 41.5553 -110.0983 87° East 570 656 41,000  Level Salt Lake Center
02:03PM 41.5628 -109.8953 87° East 572 658 41,000  Level Salt Lake Center
02:04PM 41.5708 -109.6586 87° East 571 657 41,000  Level Salt Lake Center
02:05PM 41.5775 -109.4550 87° East 572 658 41,000  Level Salt Lake Center
02:06PM 41.5833 -109.2497 88° East 572 658 41,000  Level Salt Lake Center
02:07PM 41.5903 -109.0092 88° East 569 655 41,000  Level Salt Lake Center
02:08PM 41.6067 -108.8047 84° East 569 655 41,000  Level Salt Lake Center
02:09PM 41.6228 -108.6017 84° East 571 657 41,000  Level Salt Lake Center
02:10PM 41.6394 -108.3664 85° East 571 657 41,000  Level Salt Lake Center
02:11PM 41.6533 -108.1642 85° East 571 657 41,000  Level Salt Lake Center
02:12PM 41.6664 -107.9925 84° East 574 661 41,000  Level Denver Center
02:13PM 41.6794 -107.7928 85° East 567 652 41,000  Level Denver Center
02:14PM 41.6956 -107.5564 85° East 570 656 41,000  Level Denver Center
02:15PM 41.7092 -107.3533 85° East 573 659 41,000  Level Denver Center
02:16PM 41.7250 -107.1167 85° East 573 659 41,000  Level Denver Center
02:17PM 41.7367 -106.9128 86° East 573 659 41,000  Level Denver Center
02:18PM 41.7500 -106.6756 86° East 571 657 41,000  Level Denver Center
02:19PM 41.7642 -106.4617 85° East 572 658 41,000  Level Denver Center
02:20PM 41.7750 -106.2569 86° East 576 663 41,000  Level Denver Center
02:21PM 41.7875 -106.0203 86° East 574 661 41,000  Level Denver Center
02:22PM 41.7992 -105.8172 86° East 574 661 41,000  Level Denver Center
02:23PM 41.8103 -105.5789 86° East 576 663 41,000  Level Denver Center
02:25PM 41.8192 -105.3742 87° East 576 663 41,000  Level Denver Center
02:26PM 41.8294 -105.1703 86° East 575 662 41,000  Level Denver Center
02:27PM 41.8394 -104.9317 87° East 576 663 41,000  Level Denver Center
02:28PM 41.8483 -104.7272 87° East 576 663 41,000  Level Denver Center
02:29PM 41.8581 -104.4900 87° East 577 664 41,000  Level Denver Center
02:30PM 41.8658 -104.2864 87° East 574 661 41,000  Level Denver Center
02:31PM 41.8742 -104.0478 87° East 576 663 41,000  Level Denver Center
02:32PM 41.8814 -103.8444 87° East 575 662 41,000  Level Denver Center
02:33PM 41.8897 -103.6044 87° East 578 665 41,000  Level Denver Center
02:34PM 41.9039 -103.4019 85° East 573 659 41,000  Level Denver Center
02:35PM 41.9333 -103.2008 79° East 575 662 41,000  Level Denver Center
02:36PM 41.9650 -102.9664 80° East 573 659 41,000  Level Denver Center
02:37PM 41.9931 -102.7664 79° East 572 658 41,000  Level Denver Center
02:38PM 42.0244 -102.5331 80° East 569 655 41,000  Level Denver Center
02:39PM 42.0494 -102.3336 80° East 567 652 41,000  Level Denver Center
02:40PM 42.0814 -102.1008 79° East 568 654 41,000  Level Denver Center
02:41PM 42.1069 -101.9022 80° East 564 649 41,000  Level Denver Center
02:42PM 42.1361 -101.6664 80° East 569 655 41,000  Level Denver Center
02:43PM 42.1622 -101.4644 80° East 569 655 41,000  Level Denver Center
02:44PM 42.1867 -101.2625 81° East 569 655 41,000  Level Denver Center
02:45PM 42.2147 -101.0253 81° East 572 658 41,000  Level Denver Center
02:46PM 42.2394 -100.8217 81° East 572 658 41,000  Level Denver Center
02:47PM 42.2664 -100.5850 81° East 571 657 41,000  Level Denver Center
02:48PM 42.2894 -100.3814 81° East 572 658 41,000  Level Denver Center
02:49PM 42.3131 -100.1775 81° East 574 661 41,000  Level Denver Center
02:50PM 42.3397 -99.9392 81° East 574 661 41,000  Level Denver Center
02:51PM 42.3619 -99.7347 82° East 573 659 41,000  Level Denver Center
02:52PM 42.3844 -99.5194 82° East 572 658 41,000  Level Denver Center
02:53PM 42.4072 -99.3056 82° East 573 659 41,000  Level Denver Center
02:54PM 42.4289 -99.0906 82° East 575 662 41,000  Level Denver Center
02:55PM 42.4517 -98.8789 82° East 568 654 41,000  Level Denver Center
02:56PM 42.4739 -98.6211 83° East 572 658 41,000  Level Minneapolis Center
02:58PM 42.4847 -98.4053 86° East 572 658 41,000  Level Minneapolis Center
02:59PM 42.4953 -98.1886 86° East 574 661 41,000  Level Minneapolis Center
03:00PM 42.5033 -97.9725 87° East 574 661 41,000  Level Minneapolis Center
03:01PM 42.5156 -97.7292 86° East 571 657 41,000  Level Minneapolis Center
03:02PM 42.5242 -97.5144 87° East 570 656 41,000  Level Minneapolis Center
03:03PM 42.5325 -97.2992 87° East 571 657 41,000  Level Minneapolis Center
03:04PM 42.5417 -97.0844 87° East 570 656 41,000  Level Minneapolis Center
03:05PM 42.5486 -96.8689 87° East 570 656 41,000  Level Minneapolis Center
03:06PM 42.5567 -96.6564 87° East 566 651 41,000  Level Minneapolis Center
03:07PM 42.5644 -96.3997 88° East 567 652 41,000  Level Minneapolis Center
03:08PM 42.5711 -96.1858 88° East 567 652 41,000  Level Minneapolis Center
03:09PM 42.5769 -95.9719 88° East 567 652 41,000  Level Minneapolis Center
03:10PM 42.5822 -95.7581 88° East 566 651 41,000  Level Minneapolis Center
03:11PM 42.5886 -95.5436 88° East 566 651 41,000  Level Minneapolis Center
03:12PM 42.5933 -95.3281 88° East 570 656 41,000  Level Minneapolis Center
03:13PM 42.5972 -95.1119 89° East 571 657 41,000  Level Minneapolis Center
03:14PM 42.6019 -94.8969 88° East 570 656 41,000  Level Minneapolis Center
03:15PM 42.6050 -94.6822 89° East 568 654 41,000  Level Minneapolis Center
03:16PM 42.6075 -94.4358 89° East 570 656 41,000  Level Minneapolis Center
03:17PM 42.6083 -94.2264 90° East 562 647 41,000  Level Minneapolis Center
03:18PM 42.5972 -94.0150 94° East 566 651 41,000  Level Minneapolis Center
03:19PM 42.5875 -93.8056 94° East 565 650 41,000  Level Minneapolis Center
03:20PM 42.5775 -93.5947 94° East 566 651 41,000  Level Minneapolis Center
03:21PM 42.5678 -93.3850 94° East 563 648 41,000  Level Minneapolis Center
03:22PM 42.5547 -93.1336 94° East 562 647 41,000  Level Minneapolis Center
03:23PM 42.5433 -92.9275 94° East 558 642 41,000  Level Minneapolis Center
03:24PM 42.5325 -92.7208 94° East 557 641 41,000  Level Minneapolis Center
03:25PM 42.5206 -92.5150 94° East 555 639 41,000  Level Minneapolis Center
03:26PM 42.5089 -92.3094 94° East 554 638 41,000  Level Minneapolis Center
03:27PM 42.4967 -92.1056 95° East 553 636 41,000  Level Minneapolis Center
03:28PM 42.4908 -92.0219 95° East 552 635 41,000  Level Chicago Center
03:29PM 42.4758 -91.7775 95° East 553 636 41,000  Level Chicago Center
03:30PM 42.4631 -91.5750 95° East 553 636 41,000  Level Chicago Center
03:31PM 42.4494 -91.3708 95° East 557 641 41,000  Level Chicago Center
03:32PM 42.4336 -91.1678 96° East 553 636 41,000  Level Chicago Center
03:33PM 42.4194 -90.9617 95° East 556 640 41,000  Level Chicago Center
03:34PM 42.4017 -90.7133 95° East 559 643 41,000  Level Chicago Center
03:35PM 42.3903 -90.5069 94° East 556 640 41,000  Level Chicago Center
03:36PM 42.3789 -90.3000 94° East 559 643 41,000  Level Chicago Center
03:37PM 42.3675 -90.0931 94° East 558 642 41,000  Level Chicago Center
03:38PM 42.3536 -89.8517 94° East 556 640 41,000  Level Chicago Center
03:39PM 42.3403 -89.6428 95° East 558 642 41,000  Level Chicago Center
03:40PM 42.3269 -89.4342 95° East 556 640 41,000  Level Chicago Center
03:41PM 42.3133 -89.2261 95° East 559 643 41,000  Level Chicago Center
03:42PM 42.2989 -89.0214 95° East 552 635 41,000  Level Chicago Center
03:43PM 42.2842 -88.7897 95° East 554 638 41,000  Level Chicago Center
03:44PM 42.2692 -88.5836 96° East 553 636 41,000  Level Chicago Center
03:45PM 42.2533 -88.3758 96° East 557 641 41,000  Level Chicago Center
03:46PM 42.2375 -88.1711 96° East 551 634 41,000  Level Chicago Center
03:47PM 42.2222 -87.9672 96° East 547 629 41,000  Level Chicago Center
03:48PM 42.2111 -87.7614 94° East 549 632 41,000  Level Chicago Center
03:49PM 42.1975 -87.5153 94° East 547 629 41,000  Level Chicago Center
03:50PM 42.1861 -87.3103 94° East 548 631 41,000  Level Chicago Center
03:51PM 42.1739 -87.1056 95° East 549 632 41,000  Level Chicago Center
03:52PM 42.1608 -86.8997 95° East 553 636 41,000  Level Chicago Center
03:53PM 42.1478 -86.6767 94° East 542 624 41,000  Level Chicago Center
03:54PM 42.1367 -86.4736 94° East 544 626 41,000  Level Chicago Center
03:55PM 42.1228 -86.2733 95° East 538 619 41,000  Level Chicago Center
03:56PM 42.1086 -86.0725 95° East 539 620 41,000  Level Chicago Center
03:57PM 42.0961 -85.8903 95° East 534 615 41,000  Level Chicago Center
03:59PM 42.0792 -85.6503 95° East 540 621 41,000  Level Chicago Center
04:00PM 42.0647 -85.4511 96° East 538 619 41,000  Level Chicago Center
04:01PM 42.0497 -85.2492 96° East 544 626 41,000  Level Chicago Center
04:02PM 42.0378 -85.0442 94° East 550 633 41,000  Level Chicago Center
04:03PM 42.0386 -84.8419 90° East 545 627 41,000  Level Chicago Center
04:04PM 42.0431 -84.5967 89° East 547 629 41,000  Level Chicago Center
04:05PM 42.0458 -84.3917 89° East 549 632 41,000  Level Chicago Center
04:06PM 42.0472 -84.1881 89° East 548 631 41,000  Level Chicago Center
04:07PM 42.0497 -83.9850 89° East 546 628 41,000  Level Chicago Center
04:08PM 42.0486 -83.7850 90° East 541 623 41,000  Level Chicago Center
04:09PM 42.0439 -83.5750 92° East 541 623 41,000  Level Cleveland Center
04:10PM 42.0511 -83.3711 87° East 541 623 41,000  Level Cleveland Center
04:11PM 42.0581 -83.1672 87° East 541 623 41,000  Level Cleveland Center
04:12PM 42.0706 -82.9664 85° East 541 623 41,000  Level Cleveland Center
04:13PM 42.0789 -82.7569 87° East 546 628 41,000  Level Cleveland Center
04:14PM 42.0911 -82.5531 85° East 546 628 41,000  Level Cleveland Center
04:15PM 42.0858 -82.3542 92° East 546 628 41,000  Level Cleveland Center
04:16PM 42.1078 -82.1478 82° East 546 628 41,000  Level Cleveland Center
04:17PM 42.1144 -81.9436 87° East 545 627 41,000  Level Cleveland Center
04:18PM 42.1231 -81.7394 87° East 545 627 41,000  Level Cleveland Center
04:19PM 42.1292 -81.5322 88° East 545 627 41,000  Level Cleveland Center
04:20PM 42.1367 -81.3281 87° East 551 634 41,000  Level Cleveland Center
04:21PM 42.1442 -81.1208 87° East 551 634 41,000  Level Cleveland Center
04:22PM 42.1511 -80.9136 87° East 546 628 41,000  Level Cleveland Center
04:23PM 42.1536 -80.7289 89° East 552 635 41,000  Level Cleveland Center
04:24PM 42.1600 -80.5244 88° East 547 629 41,000  Level Cleveland Center
04:25PM 42.1661 -80.3169 88° East 552 635 41,000  Level Cleveland Center
04:26PM 42.1694 -80.1097 89° East 552 635 41,000  Level Cleveland Center
04:27PM 42.1747 -79.8828 88° East 552 635 41,000  Level Cleveland Center
04:28PM 42.1814 -79.6753 87° East 552 635 41,000  Level Cleveland Center
04:29PM 42.1817 -79.4681 90° East 552 635 41,000  Level Cleveland Center
04:30PM 42.1858 -79.2606 88° East 552 635 41,000  Level Cleveland Center
04:31PM 42.1958 -79.0531 86° East 552 635 41,000  Level Cleveland Center
04:32PM 42.2203 -78.8672 80° East 552 635 41,000  Level Cleveland Center
04:33PM 42.2483 -78.6589 80° East 557 641 41,000  Level Cleveland Center
04:34PM 42.2739 -78.4506 81° East 562 647 41,000  Level Cleveland Center
04:35PM 42.3025 -78.2192 80° East 562 647 41,000  Level Cleveland Center
04:36PM 42.3275 -78.0161 80° East 562 647 41,000  Level Cleveland Center
04:37PM 42.3500 -77.8156 81° East 546 628 41,000  Level Cleveland Center
04:38PM 42.3703 -77.6294 82° East 525 604 41,000  Level Cleveland Center
04:39PM 42.3925 -77.4456 81° East 511 588 41,000 -780 Level Cleveland Center
04:41PM 42.4306 -77.0822 82° East 484 557 38,800 -1,380 Descending Boston Center
04:42PM 42.4528 -76.8925 81° East 490 564 36,900 -1,920 Descending Boston Center
04:43PM 42.4728 -76.6967 82° East 510 587 35,000 -1,800 Descending Boston Center
04:44PM 42.4900 -76.5147 83° East 510 587 33,300 -1,020 Descending Boston Center
04:45PM 42.4689 -76.3361 99° East 482 555 33,000 -660 Descending Boston Center
04:46PM 42.4333 -76.1536 105° East 482 555 32,000 -1,440 Descending Boston Center
04:47PM 42.3972 -75.9828 106° East 487 560 30,200 -1,920 Descending Boston Center
04:48PM 42.3628 -75.8150 105° East 473 544 28,200 -1,980 Descending Boston Center
04:49PM 42.3297 -75.6558 106° East 452 520 26,300 -1,740 Descending Boston Center
04:50PM 42.2908 -75.4856 107° East 435 501 24,800 -1,800 Descending Boston Center
04:51PM 42.2650 -75.3550 105° East 422 486 22,700 -1,920 Descending Boston Center
04:52PM 42.2353 -75.2136 106° East 404 465 21,000 -1,740 Descending Boston Center
04:53PM 42.2050 -75.0803 107° East 385 443 19,300 -1,500 Descending Boston Center
04:54PM 42.1728 -74.9417 107° East 379 436 18,000 -660 Descending Boston Center
04:55PM 42.1211 -74.8250 121° Southeast 372 428 18,000 -360 Level Boston Center
04:56PM 42.0672 -74.6997 120° Southeast 372 428 17,300 -1,320 Descending Boston Center
04:57PM 42.0156 -74.5694 118° Southeast 372 428 15,400 -1,680 Descending Boston Center
04:58PM 41.9697 -74.4672 121° Southeast 365 420 14,000 -1,500 Descending Boston Center
04:59PM 41.9133 -74.3539 124° Southeast 344 396 12,400 -1,320 Descending Boston Center
05:00PM 41.8433 -74.3017 151° Southeast 330 380 11,400 -900 Descending Boston Center
05:01PM 41.7608 -74.2381 150° Southeast 321 369 10,700 -1,260 Descending Boston Center
05:02PM 41.7033 -74.1919 149° Southeast 287 330 8,900 -1,800 Descending Boston Center
05:03PM 41.6292 -74.1369 151° Southeast 276 318 7,200 -960 Descending Boston Center
05:04PM 41.5672 -74.0883 150° Southeast 266 306 7,000 -240 Descending Boston Center
05:05PM 41.5000 -74.0333 148° Southeast 257 296 6,800 -480 Descending New York TRACON
05:06PM 41.4333 -73.9833 151° Southeast 248 285 6,000 -540 Descending New York TRACON
05:07PM 41.3833 -73.9500 153° Southeast 194 223 5,700 -600 Descending New York TRACON
05:08PM 41.3333 -73.9167 153° Southeast 181 208 4,900 -900 Descending New York TRACON
05:09PM 41.3000 -73.8833 143° Southeast 159 183 4,000 -900 Descending New York TRACON
05:10PM 41.2667 -73.8500 143° Southeast 154 177 3,100 -480 Descending New York TRACON
05:11PM 41.2167 -73.8333 166° South 156 180 3,100 -60 Level New York TRACON
05:12PM 41.1833 -73.8000 143° Southeast 145 167 3,000 -420 Descending New York TRACON
05:13PM 41.1500 -73.7667 143° Southeast 151 174 2,300 -660 Descending New York TRACON
05:14PM 41.1167 -73.7500 159° South 123 142 1,700 -660 Descending New York TRACON
05:15PM 41.1000 -73.7333 143° Southeast 120 138 1,000 -720 Descending New York TRACON
05:17PM 41.0667 -73.7000 246° West  Level FlightAware Approximate